This demonstration page uses our WeatherBlox Daily Observations layout. Learn more.

Left ArrowRight Arrow

38.83388, -104.82136

Hourly Observations for January 9, 2017

Temp ( °F °C ) Dew Point ( °F °C ) Humidity (%) Winds ( mph kmh ) Pressure ( in mb ) Visibility ( mi km ) Precip ( " mm )
12:58 am 00:58 Clear 40 4.4 27 -2.6 61 61 N 8 13 29.62 1003 10 16 0.00 0.00
1:58 am 01:58 Clear 38 3.1 28 -2.5 67 67 NNW 9 15 29.59 1002 10 16 0.00 0.00
2:40 am 02:40 Clear 41 5 27 -3 57 57 NW 17 28 29.83 1010 10 16 0.00 0.00
2:58 am 02:58 Clear 40 4.5 26 -3.2 58 58 Calm 29.57 1001 10 16 0.00 0.00
3:44 am 03:44 Clear 41 5 27 -3 57 57 N 14 22 29.80 1009 10 16 0.00 0.00
3:46 am 03:46 Clear 41 5 25 -4 53 53 NW 13 20 29.80 1009 10 16 0.00 0.00
3:58 am 03:58 Clear 44 6.7 25 -4 47 47 NNW 14 22 29.56 1001 10 16 0.00 0.00
4:14 am 04:14 Clear 45 7 25 -4 46 46 NW 13 20 29.71 1006 10 16 0.00 0.00
4:27 am 04:27 Clear 46 8 23 -5 40 40 ENE 13 20 29.68 1005 10 16 0.00 0.00
4:35 am 04:35 Clear 46 8 21 -6 37 37 SE 14 22 29.65 1004 10 16 0.00 0.00
4:38 am 04:38 Clear 50 10 21 -6 32 32 S 18 30 29.56 1001 10 16 0.00 0.00
4:40 am 04:40 Clear 52 11 21 -6 30 30 SE 20 31 29.53 1000 10 16 0.00 0.00
4:51 am 04:51 Clear 52 11 23 -5 32 32 E 18 30 29.59 1002 10 16 0.00 0.00
4:55 am 04:55 Clear 54 12 23 -5 30 30 ESE 16 26 29.50 999 10 16 0.00 0.00
4:57 am 04:57 Clear 54 12 23 -5 30 30 S 23 37 29.56 1001 10 16 0.00 0.00
4:58 am 04:58 Clear 53 11.9 22 -5.4 30 30 S 25 41 29.44 997 10 16 0.00 0.00
4:59 am 04:59 Clear 54 12 23 -5 30 30 WNW 31 50 29.56 1001 10 16 0.00 0.00
5:03 am 05:03 Clear 54 12 23 -5 30 30 WNW 23 37 29.50 999 10 16 0.00 0.00
5:05 am 05:05 Clear 54 12 23 -5 30 30 E 22 35 29.50 999 10 16 0.00 0.00
5:07 am 05:07 Clear 54 12 23 -5 30 30 SW 20 31 29.50 999 10 16 0.00 0.00
5:09 am 05:09 Clear 54 12 21 -6 28 28 WSW 23 37 29.56 1001 10 16 0.00 0.00
5:11 am 05:11 Clear 54 12 23 -5 30 30 W 40 65 29.47 998 10 16 0.00 0.00
5:14 am 05:14 Clear 54 12 23 -5 30 30 NNW 28 44 29.47 998 10 16 0.00 0.00
5:18 am 05:18 Clear 54 12 23 -5 30 30 SSW 25 41 29.50 999 10 16 0.00 0.00
5:21 am 05:21 Clear 54 12 23 -5 30 30 NW 30 48 29.50 999 10 16 0.00 0.00
5:22 am 05:22 Clear 54 12 23 -5 30 30 NNW 29 46 29.47 998 10 16 0.00 0.00
5:26 am 05:26 Clear 54 12 23 -5 30 30 NW 38 61 29.44 997 10 16 0.00 0.00
5:28 am 05:28 Mostly Clear 54 12 23 -5 30 30 W 24 39 29.50 999 10 16 0.00 0.00
5:31 am 05:31 Mostly Clear 54 12 23 -5 30 30 NW 25 41 29.50 999 10 16 0.00 0.00
5:36 am 05:36 Partly Cloudy 52 11 25 -4 35 35 N 32 52 29.50 999 10 16 0.00 0.00
5:38 am 05:38 Mostly Cloudy 52 11 23 -5 32 32 NNW 33 54 29.53 1000 10 16 0.00 0.00
5:41 am 05:41 Mostly Cloudy 52 11 23 -5 32 32 E 28 44 29.47 998 10 16 0.00 0.00
5:43 am 05:43 Mostly Cloudy 52 11 25 -4 35 35 NNW 30 48 29.53 1000 10 16 0.00 0.00
5:44 am 05:44 Mostly Cloudy 52 11 23 -5 32 32 N 39 63 29.53 1000 10 16 0.00 0.00
5:46 am 05:46 Mostly Cloudy 52 11 23 -5 32 32 NW 33 54 29.53 1000 10 16 0.00 0.00
5:48 am 05:48 Mostly Cloudy 54 12 23 -5 30 30 W 28 44 29.50 999 10 16 0.00 0.00
5:53 am 05:53 Mostly Cloudy 54 12 23 -5 30 30 WSW 25 41 29.50 999 10 16 0.00 0.00
5:55 am 05:55 Mostly Cloudy 54 12 23 -5 30 30 N 26 43 29.47 998 10 16 0.00 0.00
5:56 am 05:56 Mostly Cloudy 54 12 23 -5 30 30 WNW 20 31 29.56 1001 10 16 0.00 0.00
5:58 am 05:58 Mostly Cloudy 53 11.6 23 -4.8 32 32 WNW 40 65 29.43 997 10 16 0.00 0.00
6:00 am 06:00 Mostly Cloudy 54 12 23 -5 30 30 W 28 44 29.56 1001 10 16 0.00 0.00
6:07 am 06:07 Partly Cloudy 54 12 25 -4 33 33 NW 25 41 29.50 999 10 16 0.00 0.00
6:10 am 06:10 Partly Cloudy N/A N/A N/A NW 20 31 N/A N/A 0.00 0.00
6:13 am 06:13 Partly Cloudy 54 12 25 -4 33 33 W 25 41 29.50 999 10 16 0.00 0.00
6:16 am 06:16 Partly Cloudy 54 12 25 -4 33 33 NNW 29 46 29.44 997 10 16 0.00 0.00
6:18 am 06:18 Mostly Clear 54 12 25 -4 33 33 WSW 26 43 29.50 999 10 16 0.00 0.00
6:22 am 06:22 Mostly Clear 52 11 25 -4 35 35 WSW 22 35 29.53 1000 10 16 0.00 0.00
6:23 am 06:23 Mostly Clear 52 11 25 -4 35 35 WNW 29 46 29.59 1002 10 16 0.00 0.00
6:27 am 06:27 Mostly Clear 52 11 25 -4 35 35 NNW 35 56 29.53 1000 10 16 0.00 0.00
6:31 am 06:31 Mostly Clear 52 11 25 -4 35 35 NNW 28 44 29.53 1000 10 16 0.00 0.00
6:33 am 06:33 Mostly Clear 52 11 25 -4 35 35 N 25 41 29.53 1000 10 16 0.00 0.00
6:36 am 06:36 Mostly Clear 52 11 25 -4 35 35 N 23 37 29.53 1000 10 16 0.00 0.00
6:39 am 06:39 Mostly Clear 52 11 25 -4 35 35 E 32 52 29.53 1000 10 16 0.00 0.00
6:42 am 06:42 Mostly Clear 52 11 25 -4 35 35 WNW 32 52 29.53 1000 10 16 0.00 0.00
6:43 am 06:43 Partly Cloudy 52 11 25 -4 35 35 N 28 44 29.53 1000 10 16 0.00 0.00
6:47 am 06:47 Mostly Cloudy 52 11 25 -4 35 35 WSW 30 48 29.53 1000 10 16 0.00 0.00
6:51 am 06:51 Mostly Cloudy 52 11 25 -4 35 35 S 22 35 29.53 1000 10 16 0.00 0.00
6:55 am 06:55 Partly Cloudy 52 11 25 -4 35 35 NNW 29 46 29.59 1002 10 16 0.00 0.00
6:56 am 06:56 Partly Cloudy 52 11 25 -4 35 35 WNW 33 54 29.53 1000 10 16 0.00 0.00
6:58 am 06:58 Partly Cloudy 53 11.4 24 -4.4 33 33 W 26 43 29.41 996 10 16 0.00 0.00
7:04 am 07:04 Mostly Cloudy 54 12 25 -4 33 33 W 28 44 29.47 998 10 16 0.00 0.00
7:08 am 07:08 Mostly Cloudy 52 11 25 -4 35 35 W 24 39 29.59 1002 10 16 0.00 0.00
7:10 am 07:10 Mostly Cloudy 52 11 23 -5 32 32 SE 16 26 29.53 1000 10 16 0.00 0.00
7:13 am 07:13 Mostly Cloudy 52 11 23 -5 32 32 NW 44 70 29.50 999 10 16 0.00 0.00
7:14 am 07:14 Mostly Cloudy 52 11 25 -4 35 35 WNW 32 52 29.53 1000 10 16 0.00 0.00
7:18 am 07:18 Mostly Cloudy 52 11 23 -5 32 32 W 36 57 29.50 999 10 16 0.00 0.00
7:21 am 07:21 Mostly Cloudy 52 11 25 -4 35 35 W 20 31 29.53 1000 10 16 0.00 0.00
7:22 am 07:22 Mostly Cloudy 52 11 25 -4 35 35 NNW 21 33 29.53 1000 10 16 0.00 0.00
7:26 am 07:26 Mostly Cloudy 52 11 25 -4 35 35 NNW 29 46 29.59 1002 10 16 0.00 0.00
7:28 am 07:28 Mostly Cloudy 52 11 25 -4 35 35 NW 25 41 29.53 1000 10 16 0.00 0.00
7:32 am 07:32 Mostly Cloudy 52 11 25 -4 35 35 W 25 41 29.53 1000 10 16 0.00 0.00
7:33 am 07:33 Mostly Cloudy 52 11 25 -4 35 35 W 26 43 29.50 999 10 16 0.00 0.00
7:37 am 07:37 Mostly Cloudy 52 11 25 -4 35 35 SSW 22 35 29.53 1000 10 16 0.00 0.00
7:38 am 07:38 Mostly Cloudy 52 11 25 -4 35 35 WSW 24 39 29.53 1000 10 16 0.00 0.00
7:39 am 07:39 Mostly Cloudy 52 11 23 -5 32 32 WNW 31 50 29.53 1000 10 16 0.00 0.00
7:42 am 07:42 Mostly Cloudy 54 12 25 -4 33 33 W 17 28 29.50 999 10 16 0.00 0.00
7:48 am 07:48 Mostly Cloudy 54 12 25 -4 33 33 WNW 43 69 29.44 997 10 16 0.00 0.00
7:52 am 07:52 Mostly Cloudy 52 11 25 -4 35 35 NW 26 43 29.53 1000 10 16 0.00 0.00
7:57 am 07:57 Mostly Cloudy 52 11 27 -3 38 38 NW 32 52 29.47 998 10 16 0.00 0.00
7:58 am 07:58 Mostly Cloudy 52 11.1 26 -3.5 36 36 NW 37 59 29.35 994 10 16 0.00 0.00
8:00 am 08:00 Mostly Cloudy 52 11 25 -4 35 35 W 30 48 29.50 999 10 16 0.00 0.00
8:07 am 08:07 Partly Cloudy 52 11 25 -4 35 35 W 48 78 29.50 999 10 16 0.00 0.00
8:17 am 08:17 Mostly Sunny N/A N/A N/A NNW 33 54 N/A N/A 0.00 0.00
8:20 am 08:20 Mostly Sunny 52 11 25 -4 35 35 NNE 32 52 29.47 998 10 16 0.00 0.00
8:22 am 08:22 Mostly Sunny 52 11 25 -4 35 35 WSW 26 43 29.47 998 10 16 0.00 0.00
8:23 am 08:23 Partly Cloudy 52 11 25 -4 35 35 WNW 30 48 29.47 998 10 16 0.00 0.00
8:30 am 08:30 Partly Cloudy 52 11 25 -4 35 35 NE 37 59 29.47 998 10 16 0.00 0.00
8:32 am 08:32 Partly Cloudy 52 11 25 -4 35 35 W 29 46 29.41 996 10 16 0.00 0.00
8:33 am 08:33 Partly Cloudy 52 11 25 -4 35 35 SE 30 48 29.47 998 10 16 0.00 0.00
8:35 am 08:35 Partly Cloudy 54 12 25 -4 33 33 NNW 31 50 29.41 996 10 16 0.00 0.00
8:36 am 08:36 Partly Cloudy 52 11 27 -3 38 38 N 32 52 29.41 996 10 16 0.00 0.00
8:38 am 08:38 Partly Cloudy 52 11 25 -4 35 35 NNW 33 54 29.47 998 10 16 0.00 0.00
8:42 am 08:42 Partly Cloudy 52 11 25 -4 35 35 ESE 26 43 29.47 998 10 16 0.00 0.00
8:45 am 08:45 Partly Cloudy 52 11 25 -4 35 35 WNW 38 61 29.47 998 10 16 0.00 0.00
8:48 am 08:48 Partly Cloudy 52 11 27 -3 38 38 NNE 29 46 29.47 998 10 16 0.00 0.00
8:50 am 08:50 Partly Cloudy 52 11 27 -3 38 38 NNW 30 48 29.41 996 10 16 0.00 0.00
9:06 am 09:06 Mostly Sunny 52 11 27 -3 38 38 NNW 25 41 29.50 999 10 16 0.00 0.00
9:09 am 09:09 Mostly Sunny 52 11 27 -3 38 38 W 26 43 29.47 998 10 16 0.00 0.00
9:11 am 09:11 Mostly Sunny 52 11 27 -3 38 38 ESE 21 33 29.53 1000 10 16 0.00 0.00
9:13 am 09:13 Partly Cloudy 52 11 27 -3 38 38 NNW 25 41 29.50 999 10 16 0.00 0.00

Powered by AerisWeather